Location: Canet
(43.3261°N, 5.3723°E)
Time: 19:13:11
(UTC+00:00)

CZ-4 R/B - Pass Details

Date: 24 January 2021
Orbit: 531 x 598 km, 97.7° (Epoch: 07 March)

Event Time Altitude Azimuth Distance (km) Brightness Sun altitude
Rises 17:50:53 0° 153° (SSE) 2,789 4.8 -13.0°
Reaches altitude 10° 17:53:05 10° 149° (SSE) 1,884 3.9 -13.3°
Maximum altitude 17:57:03 51° 73° (ENE) 723 1.5 -14.0°
Drops below altitude 10° 18:00:57 10° 358° (N) 1,858 3.9 -14.7°
Sets 18:03:06 0° 353° (N) 2,747 4.8 -15.1°
